Lid_Strength_Index
0 0 0 0 0 0 0 1 2 4 3 1 1 -1 -1 -1 -1 -2 -1 -0 -0 0 1 1 1 1 0 0 0 0 0 0 0 1 0 -1 -1 -1
0 0 0 0 0 0 0 0 1 2 4 1 1 -0 -1 -1 -1 -2 -1 0 0 1 1 2 2 2 1 0 1 1 1 1 1 1 1 1 0 -0
0 0 0 -0 1 0 0 0 1 1 3 2 0 -0 -0 -0 -1 -1 -1 -1 -1 1 1 1 2 2 1 1 1 1 1 2 1 2 1 1 1 0
1 0 1 0 0 0 0 1 1 0 2 3 1 1 0 -1 -0 -0 -0 -1 -1 0 1 1 2 2 2 2 2 2 3 3 3 2 2 2 2 1
0 1 1 1 1 1 1 1 1 1 1 2 2 1 0 -0 0 -0 -0 -1 -1 -0 1 1 2 1 2 2 3 4 5 6 5 5 4 3 2 2
0 0 0 1 1 1 1 1 1 1 1 2 2 2 1 0 0 1 1 0 0 -1 -0 1 1 1 2 1 3 4 6 7 8 7 7 6 5 4
1 0 0 0 1 1 1 0 1 1 2 2 2 2 2 2 2 1 2 1 0 -0 0 -0 -0 -1 -1 1 0 1 4 6 7 7 8 7 6 5
1 1 1 1 1 4 3 3 1 1 2 2 2 3 2 2 1 1 2 2 3 -1 1 1 -0 0 -0 -1 3 4 4 6 6 7 7 7 6 6
1 1 1 1 2 1 2 2 1 1 2 1 2 2 2 1 1 1 2 2 2 1 1 2 0 1 -0 -1 4 5 6 6 7 6 7 7 7 7
1 1 1 1 1 1 1 1 1 1 0 0 1 1 0 -0 0 1 1 1 1 0 -0 3 0 1 -0 -1 4 5 6 7 7 7 7 7 8 9
0 0 1 1 3 5 1 2 2 1 2 4 4 3 4 5 3 0 2 3 3 2 0 2 1 1 1 1 -0 5 6 7 7 7 7 8 8 9
1 1 3 2 4 7 2 2 2 2 1 1 0 2 3 1 4 0 1 3 3 3 1 2 2 1 3 1 0 0 1 7 8 8 8 9 10 2
2 2 1 6 8 9 7 1 2 1 1 1 1 1 0 0 0 -0 -0 1 2 3 0 1 2 2 2 3 1 1 1 2 2 4 9 10 10 4
2 2 1 7 9 9 8 6 7 5 1 2 2 2 2 2 1 0 0 -0 -0 0 -0 -0 1 2 2 3 4 1 1 1 1 2 3 9 9 8
1 2 4 8 10 9 9 8 8 2 2 2 3 2 1 1 0 0 -0 -0 -0 -0 -0 -0 0 1 2 3 3 3 3 3 2 2 3 4 5 5
3 2 3 5 6 5 4 6 4 3 3 3 3 2 1 1 1 1 2 1 2 2 0 -0 0 1 2 2 2 3 2 3 3 3 3 3 3 4
4 3 4 4 4 3 3 3 3 2 3 2 2 2 2 2 2 1 1 2 3 3 2 1 1 0 1 1 3 2 2 2 3 3 3 3 3 3
5 4 4 4 4 4 3 3 2 2 2 2 1 2 2 2 2 1 1 2 3 3 3 2 3 4 5 5 6 2 3 3 3 3 2 4 5 4
3 3 4 4 4 3 3 3 3 2 2 2 2 2 3 3 3 3 3 3 3 4 4 2 3 3 5 6 6 8 5 5 5 4 3 2 4 5
3 3 3 3 3 3 2 4 4 3 2 1 1 1 2 3 3 4 4 4 5 5 5 5 5 6 5 7 7 8 10 5 5 5 6 6 7 8
3 3 3 3 3 2 3 3 2 2 3 3 3 3 2 3 4 4 5 7 6 5 6 6 5 5 5 5 6 6 7 9 7 5 5 6 6 7
3 3 2 2 2 2 2 2 2 2 2 3 2 2 2 2 3 3 4 4 4 5 5 5 4 4 5 6 7 7 7 8 9 9 8 7 6 7
3 2 3 2 2 2 3 4 4 4 4 4 3 4 3 3 4 5 3 2 3 5 5 5 4 4 5 5 7 6 6 6 5 5 4 8 8 8